#timestamp,LO_Frequency,Hit,StdDev 
1616673615.4,286046996.3,N
1616673635.2,286046995.2,N
1616673655.1,286046996.1,N
1616673656.0,286046996.1,N
1616673675.8,286046995.1,N
1616673695.6,286046994.9,N
1616673715.5,286046998.3,N
1616673735.3,286047002.7,N
1616673755.2,286047001.9,N
1616673775.9,286047001.9,N
1616673795.7,286047002.2,N
1616673815.6,286047002.4,N
1616673835.4,286046999.8,N
1616673855.2,286047003.9,N
1616673875.1,286047004.1,N
1616673876.0,286047004.1,N
1616673895.8,286047003.9,N
1616673915.7,286047001.4,N
1616673935.5,286047003.4,N
1616673955.3,286047003.9,N
1616673975.2,286047001.7,N
1616673995.0,286046998.3,N
1616673995.9,286046998.3,N
1616674015.8,286047000.9,N
1616674035.6,286047001.2,N
1616674055.4,286046998.9,N
1616674075.3,286046999.5,N
1616674095.1,286047001.0,N
1616674096.0,286047001.0,N
1616674115.8,286046996.6,N
1616674135.7,286046998.0,N
1616674155.5,286046996.0,N
1616674175.3,286046996.1,N
1616674195.2,286046995.1,N
1616674215.0,286046997.1,N
1616674215.9,286046997.1,N
1616674235.8,286046998.4,N
1616674255.6,286046999.0,N
1616674275.4,286046999.1,N
1616674295.3,286046998.3,N
1616674315.1,286046996.5,N
1616674335.9,286046999.1,N
1616674355.7,286046999.5,N
1616674375.5,286046997.1,N
1616674395.4,286046999.2,N
1616674415.2,286046999.0,N
1616674435.0,286046998.7,N
1616674435.9,286046998.7,N
1616674455.8,286046998.6,N
1616674475.6,286046996.7,N
1616674495.5,286046999.5,N
1616674515.3,286046997.8,N
1616674535.1,286046997.6,N
1616674555.9,286046999.4,N
1616674575.7,286046996.5,N
1616674595.5,286046998.6,N
1616674615.4,286046998.8,N
1616674635.2,286047002.8,N
1616674655.0,286046999.8,N
1616674656.0,286046999.8,N
1616674675.8,286047001.0,N
1616674695.6,286047002.5,N
1616674715.5,286047000.2,N
1616674735.3,286047000.0,N
1616674755.1,286046999.6,N
1616674775.9,286047000.6,N
1616674795.7,286046998.1,N
1616674815.6,286046998.5,N
1616674835.4,286046999.0,N
1616674855.2,286047001.2,N
1616674875.1,286046998.6,N
1616674876.0,286046998.6,N
1616674895.8,286047000.7,N
1616674915.6,286047000.3,N
1616674935.5,286047000.0,N
1616674955.3,286046998.2,N
1616674975.2,286046999.4,N
1616674995.9,286046998.5,N
1616675015.7,286046999.1,N
1616675035.6,286046998.4,N
1616675055.4,286046998.8,N
1616675075.2,286046999.2,N
1616675095.1,286046998.9,N
1616675096.0,286046998.9,N
1616675115.8,286046999.2,N
1616675135.7,286046999.2,N
1616675155.5,286046998.7,N
1616675175.3,286046998.5,N
1616675195.2,286046997.2,N
1616675215.9,286046995.6,Y
1616675235.7,286046998.0,P
1616675255.6,286046996.2,P
1616675275.4,286046993.3,P
1616675295.3,286046993.4,N
1616675315.1,286046994.0,N
1616675316.0,286046994.0,N
1616675335.8,286046993.5,N
1616675355.7,286046996.1,N
1616675375.5,286046994.0,N
1616675395.3,286046994.5,N
1616675415.2,286046994.8,N
1616675435.0,286046991.7,Y
1616675435.9,286046991.7,P
1616675455.8,286046996.5,N
1616675475.6,286046999.6,N
1616675495.4,286047001.0,N
1616675515.3,286046998.1,N
1616675535.1,286047000.9,N
1616675555.8,286047000.5,N
1616675575.7,286047000.8,N
1616675595.5,286047001.0,N
1616675615.3,286047000.0,N
1616675635.2,286047002.4,N
1616675655.0,286046999.8,N
1616675655.9,286046999.8,N
1616675675.8,286047000.1,N
1616675695.6,286047000.3,N
1616675715.4,286047001.9,N
1616675735.3,286046999.9,N
1616675755.1,286047000.8,N
1616675775.8,286047001.1,N
1616675795.7,286047001.2,N
1616675815.5,286047000.7,N
1616675835.4,286047002.2,N
1616675855.2,286047000.4,N
1616675875.0,286047000.1,N
1616675875.9,286047000.1,N
1616675895.8,286047002.7,N
1616675915.6,286047002.2,N
1616675935.4,286047002.3,N
1616675955.3,286047001.9,N
1616675975.1,286047002.5,N
1616675995.9,286047004.0,N
1616676015.7,286047004.1,N
1616676035.5,286047003.2,N
1616676055.4,286047005.9,Y
1616676075.2,286047003.5,P
1616676095.0,286047005.5,P
1616676095.9,286047005.5,P
1616676115.8,286047005.2,N
1616676135.6,286047005.9,Y
1616676155.5,286046998.3,P
1616676175.3,286047000.2,N
1616676195.1,286047002.3,N
1616676215.9,286047002.1,N
1616676235.7,286047002.6,N
1616676255.5,286047003.9,N
1616676275.4,286047002.0,N
1616676295.2,286047003.3,N
1616676315.1,286047005.2,N
1616676316.0,286047005.2,N
1616676335.8,286047006.0,Y
1616676355.6,286047002.7,P
1616676375.5,286047002.3,P
1616676395.3,286047000.2,N
1616676415.1,286047001.0,N
1616676435.9,286046998.5,N
1616676455.7,286046999.1,N
1616676475.6,286046999.8,N
1616676495.4,286047002.2,N
1616676515.2,286047002.0,N
1616676535.1,286047002.0,N
1616676536.0,286047002.0,N
1616676555.8,286047003.0,N
1616676575.7,286047003.0,N
1616676595.5,286047002.9,N
1616676615.3,286047004.9,Y
1616676635.2,286047002.8,P
1616676655.0,286046998.8,N
1616676655.9,286046998.8,N
1616676675.7,286046999.0,N
1616676695.6,286046998.3,N
1616676715.4,286046998.8,N
1616676735.3,286046997.3,N
1616676755.1,286046997.8,N
1616676756.0,286046997.8,N
1616676775.8,286046997.8,N
1616676795.7,286046997.5,N
1616676815.5,286046997.7,N
1616676835.3,286046997.1,N
1616676855.2,286046997.2,N
1616676875.0,286046995.0,Y
1616676875.9,286046995.0,P
1616676895.8,286046998.6,N
1616676915.6,286047000.8,N
1616676935.4,286046998.1,N
1616676955.3,286047000.7,N
1616676975.1,286046999.7,N
1616676995.8,286047001.4,N
1616677015.7,286047001.5,N
1616677035.5,286047001.5,N
1616677055.4,286047001.7,N
1616677075.2,286047002.1,N
1616677095.0,286047004.0,N
1616677095.9,286047004.0,N
1616677115.8,286047005.8,N
1616677135.6,286047005.3,N
1616677155.4,286047005.5,N
1616677175.3,286047005.7,N
1616677195.1,286047005.2,N
